This is the latest recevied weather packets stored in our database for station/object KC1BRV. If no packets are shown the sender has not sent any weather packets the latest 10 day(s).
| Time | Temp. | Humidity | Pressure | Rain* | Wind** | Luminosity | Snow |
|---|---|---|---|---|---|---|---|
| 1777820759 | 9.44° C | 60% | 1007.6 hPa | 0 mm | - | 164 W/m² | - |
| 1777820455 | 9.44° C | 57% | 1007.6 hPa | 0 mm | - | 167 W/m² | - |
| 1777820153 | 10° C | 57% | 1007.4 hPa | 0 mm | - | 171 W/m² | - |
| 1777819850 | 10° C | 56% | 1007.4 hPa | 0 mm | - | 243 W/m² | - |
| 1777819548 | 10° C | 59% | 1007.5 hPa | 0 mm | - | 854 W/m² | - |
| 1777819245 | 10° C | 59% | 1007.5 hPa | 0 mm | - | 373 W/m² | - |
| 1777818942 | 10° C | 59% | 1007.5 hPa | 0 mm | - | 281 W/m² | - |
| 1777818638 | 9.44° C | 61% | 1007.6 hPa | 0 mm | - | 304 W/m² | - |
| 1777818336 | 8.89° C | 62% | 1007.5 hPa | 0 mm | - | 356 W/m² | - |
| 1777818032 | 8.89° C | 61% | 1007.6 hPa | 0 mm | - | 194 W/m² | - |
| 1777817729 | 8.33° C | 62% | 1007.7 hPa | 0 mm | - | 186 W/m² | - |
| 1777817426 | 8.33° C | 62% | 1007.7 hPa | 0 mm | - | 99 W/m² | - |
| 1777817122 | 8.89° C | 61% | 1007.5 hPa | 0 mm | - | 117 W/m² | - |
| 1777816820 | 8.89° C | 61% | 1007.6 hPa | 0 mm | - | 211 W/m² | - |
| 1777816517 | 8.89° C | 61% | 1007.6 hPa | 0 mm | - | 168 W/m² | - |
| 1777816214 | 9.44° C | 60% | 1007.5 hPa | 0 mm | - | 260 W/m² | - |
| 1777815912 | 8.89° C | 60% | 1007.6 hPa | 0 mm | - | 323 W/m² | - |
| 1777815609 | 8.89° C | 60% | 1007.4 hPa | 0 mm | - | 237 W/m² | - |
| 1777815306 | 8.89° C | 60% | 1007.7 hPa | 0 mm | - | 210 W/m² | - |
| 1777815002 | 8.89° C | 60% | 1007.6 hPa | 0 mm | - | 179 W/m² | - |
| 1777814699 | 9.44° C | 60% | 1007.6 hPa | 0 mm | - | 342 W/m² | - |
| 1777814396 | 8.89° C | 61% | 1007.6 hPa | 0 mm | - | 259 W/m² | - |
| 1777814093 | 8.33° C | 61% | 1007.7 hPa | 0 mm | - | 181 W/m² | - |
| 1777813789 | 8.89° C | 59% | 1007.6 hPa | 0 mm | - | 129 W/m² | - |
| 1777813487 | 9.44° C | 60% | 1007.5 hPa | 0 mm | - | 124 W/m² | - |
* Rain latest hour (hover to see other rain measurements)
** Current wind speed in m/s (hover to see current wind gust speed)